TSIOLKOVSKY-RYAZAN 2 (*) (53313 NORAD) Tracking and Keplerian Element Data

This shows tracking and keplerian element data for the satellite.

Feedback or suggestion? Click here.




ElementValue
Catalog53313
NameTSIOLKOVSKY-RYAZAN 2 (*)
Epoch Orbit2765
Epoch Day14.19496999
Epoch Year2023
RAAN355.3136
Inclination51.6306
Eccentricity0.0006313
Argument of Perigee83.2312
Mean Anonmoly276.9412
Mean Motion15.89960802
Decay Rate0.00693352
L11 53313U 98067TY 23014.19496999 .00693352 19997-3 22722-2 0 9994
L22 53313 51.6306 355.3136 0006313 83.2312 276.9412 15.89960802 27655



Live tracking and technical data element details for TSIOLKOVSKY-RYAZAN 2 (*) (NORAD 53313). TSIOLKOVSKY-RYAZAN 2 (*) can be tracked NOW for your location showing map with azimuth and elevation plus other details from your city location.







IsCatalogInMostPopularTable: catalog: 53313, numindb: 59
Update: records affected: 1



GetName: 53313 TSIOLKOVSKY-RYAZAN 2 (*)

Hit Count: updated at: Fri, 24 Jan 2025 22:33:25 GMT